Starlink 32289

operational
NORAD ID: 60737 Int'l Des: 2024-152 Owner: SPXS Country: US Constellation: starlink
LEOCIRCULAR

关于 Starlink 32289

正在加载描述...

实时位置

正在加载3D地球...

即将过境

高度历史

Altitude vs Time

uPlot chart will show altitude changes over time

两行轨道根数

1 60737U 24152T 25306.23637114 .00001199 00000-0 52624-4 0 9993
2 60737 53.1599 140.6887 0001126 87.5068 272.6061 15.30194132 67337
Epoch: Nov 2, 2025 • Age: 17 hours

当前状态

高度 491.7 km
速度 7.62 km/s
星下点 -46.23°S, 10.11°W
发射日期 Aug 28, 2024
运行时间 1.1 years
类型 internet

技术详情

分类 Payload
质量 730.00 kg
干质量 700.00 kg
总质量 730.00 kg
长度 0.30 m
直径 4.10 m
跨度 29.00 m
形状 Box + pan
制造商 SPXS
平台类型 Starlink V2M
阶段状态 In Orbit
所有者/国家 SPXS/US

大型星座

Loading constellations...